Location: Helsinki
(60.1699°N, 24.9384°E)
Time: 23:19:53
(UTC+02:00)

Altair - Pass Details

Date: 29 October 2020
Orbit: 1502 x 1682 km, 47.2° (Epoch: 25 November)

Event Time Altitude Azimuth Distance (km) Brightness Sun altitude
Rises 03:31:52 0° 172° (S) 4,646 9.8 -30.1°
Reaches altitude 10° 03:38:34 10° 138° (SE) 3,705 9.7 -29.3°
Maximum altitude 03:40:15 11° 127° (SE) 3,670 9.8 -29.2°
Drops below altitude 10° 03:41:56 10° 116° (ESE) 3,730 9.9 -29.0°
Sets 03:48:46 0° 82° (E) 4,770 11.2 -28.2°
